Regional Weather Roundup
Issued by NWS

Home | Current Version | Previous Version | Graphics & Text | Print | Product List | Glossary On
Versions: 1 2 3 4 5 6 7 8 9 10 11 12 13 14 15 16 17 18 19 20 21 22 23 24 25 26 27 28 29 30 31 32 33 34 35 36 37 38 39 40 41 42 43 44 45 46 47 48
000
ASUS45 KBOU 311407
RWRCO

WEATHER ROUNDUP FOR COLORADO
NATIONAL WEATHER SERVICE DENVER/BOULDER CO
700 AM MST SAT JAN 31 2015

NOTE: "FAIR" INDICATES FEW OR NO CLOUDS BELOW 12000 FEET WITH NO
SIGNIFICANT WEATHER AND/OR OBSTRUCTIONS TO VISIBILITY.

COZ001>005-013-030-031-311500-
...NORTHWEST COLORADO...

CITY           SKY/WX    TMP DP  RH WIND       PRES   REMARKS
CRAIG          LGT SNOW  33  31  92 SW12      29.91R FOG     WCI  24
HAYDEN         CLOUDY    30  28  93 NW6       29.89R VSB 1/2 WCI  24
MEEKER         LGT SNOW  33  32  96 CALM      29.90R FOG
MOUNT WERNER   NOT AVBL
STEAMBOAT SPGS CLOUDY    31  31  99 CALM      29.88S
WALDEN         CLOUDY    28  27  93 N3        29.88S
$$

COZ006>008-011-311500-
...WEST CENTRAL VALLEYS...

CITY           SKY/WX    TMP DP  RH WIND       PRES   REMARKS
GRAND JUNCTION LGT RAIN  37  37 100 NW3       29.90R FOG
MONTROSE       LGT RAIN  36  36 100 N3        29.91R FOG
EAGLE          LGT SNOW  32  32 100 CALM      29.90F FOG
RIFLE          LGT RAIN  35  33  92 CALM      29.89S
DELTA          RAIN      39  38  99 CALM      29.90R
NUCLA          LGT SNOW  32  32 100 CALM      29.94S
$$

COZ017>023-064>068-311500-
...SOUTHWEST COLORADO...

CITY           SKY/WX    TMP DP  RH WIND       PRES   REMARKS
DURANGO        CLOUDY    32  31  96 CALM      29.89R FOG
CORTEZ         CLOUDY    34  33  96 N3        29.89S
PAGOSA SPRINGS LGT SNOW  33  33 100 CALM      29.90S
TELLURIDE      LGT SNOW  30  30 100 CALM      29.90F
WOLF CREEK PAS SNOW      19  19 100 SW13G22   29.94F VSB 1/2 WCI   7
$$

COZ009-010-012-014-032>034-037-058>063-311500-
...CENTRAL COLORADO...

CITY           SKY/WX    TMP DP  RH WIND       PRES   REMARKS
ASPEN          CLOUDY    32  30  92 CALM      29.86F
BUENA VISTA    CLOUDY    29  28  96 CALM      29.90R FOG
COPPER MTN     LGT SNOW  27  21  80 S6        29.91S WCI  20
BERTHOUD PASS  CLOUDY    19  12  73 NW12      29.93R WCI   7
COTTONWOOD PAS CLOUDY    30  27  86 CALM      29.91R
GUNNISON       CLOUDY    30  27  86 W3        29.89S
KREMMLING      CLOUDY    30  28  93 CALM      29.90S
LEADVILLE      CLOUDY    23  21  92 CALM      29.88F
MONARCH PASS   FOG       23  21  93 MISG      30.03R VSB<1/4
SALIDA         CLOUDY    32  31  97 CALM      29.98S
SUNLIGHT       LGT SNOW  30  28  93 CALM        N/A  VSB 3/4
WILKERSON PASS CLOUDY   N/A N/A N/A SW7       29.93S FOG
$$

COZ069>075-311500-
...SAN LUIS VALLEY/SANGRE DE CRISTO MOUNTAINS...

CITY           SKY/WX    TMP DP  RH WIND       PRES   REMARKS
ALAMOSA        CLOUDY    29  27  92 CALM      29.89F
LA VETA PASS   LGT SNOW  27  23  86 SW6       29.89F WCI  20
SAGUACHE       CLOUDY    30  28  93 CALM      29.91S
$$

COZ035-036-038>040-311500-
...NORTHERN COLORADO FRONT RANGE...

CITY           SKY/WX    TMP DP  RH WIND       PRES   REMARKS
DENVER INTL AP MOCLDY    31  24  75 NW3       29.89F
DMNS CITY PARK   N/A     30  24  75 NE1       29.91R
AURORA         MOCLDY    29  24  80 NE2       29.90F
FRONT RANGE AP NOT AVBL
ERIE MUNI ARPT CLOUDY    32  29  90 CALM      29.90F
BOULDER MUN AP MOCLDY    34  27  75 CALM      29.89F
CENTENNIAL     MOCLDY    29  23  78 CALM      29.89F
BROOMFIELD     MOCLDY    32  27  80 NW7       29.89F WCI  26
FORT COLLINS   MOCLDY    34  27  75 CALM      29.92F
LONGMONT       MOCLDY    34  28  80 CALM      29.92F
$$

COZ041-046-047-076>085-087-088-311500-
...PIKES PEAK/PALMER DIVIDE AND SOUTHERN FOOTHILLS...

CITY           SKY/WX    TMP DP  RH WIND       PRES   REMARKS
COLO. SPRINGS  MOCLDY    32  26  78 NE6       29.89S WCI  26
A. F. ACADEMY  MOCLDY    31  26  80 NW6       29.87F WCI  25
ELLICOTT       CLOUDY   N/A N/A N/A NW7       29.88S
FALCON         MOCLDY    31  22  68 W3        29.89S
FORT CARSON    CLOUDY    35  28  74 SW5       29.89R WCI  31
LIMON          MOCLDY    27  24  89 NW8       29.89R WCI  19
MONUMENT HILL  MOCLDY    28  23  80 W3        29.89R
TRINIDAD       CLOUDY    34  29  82 W9        29.90R WCI  27
$$

COZ042>045-048>051-090-091-311500-
...NORTHEAST COLORADO...

CITY           SKY/WX    TMP DP  RH WIND       PRES   REMARKS
GREELEY ARPT   CLOUDY    32  21  64 NW3       29.90S
AKRON          FOG       31  31 100 N5        29.89F VSB 1/4 WCI  26
BURLINGTON     CLOUDY    31  29  92 W3        29.88F
WRAY           FOG      N/A N/A N/A N6        29.91F VSB 1/4
STERLING       CLOUDY    32  32 100 NE5       29.91F WCI  27
HOLYOKE        NOT AVBL
FORT MORGAN    CLOUDY    31  27  83 N3        29.91F
$$

COZ086-089-092>099-311500-
...SOUTHEAST COLORADO...

CITY           SKY/WX    TMP DP  RH WIND       PRES   REMARKS
PUEBLO         CLOUDY    32  32 100 CALM      29.90R
LA JUNTA       CLOUDY    36  34  92 W3        29.89F
LAMAR          CLOUDY    37  37 100 NW3       29.89S
SPRINGFIELD      N/A     33  32  96 SW10      29.89F WCI  25
$$


USA.gov is the U.S. government's official web portal to all federal, state and local government web resources and services.